User: anonymous   Login
Location: Damada
(14.7329°N, 3.1761°W)
Time: 17:55:34
(UTC+00:00)
Language:

Lacrosse 4 Rocket - Orbit

View from above orbital plane
View from above orbital plane
View from above satellite
View from above satellite

Ground track
Ground track

The orbit data is extracted from the following two-line orbital elements,

1 26474U 00047B   20152.40289811  .00000017  00000-0  12506-4 0  9993
2 26474  67.9927 122.6239 0059136 220.1650 139.5115 14.95954166 76772
Epoch (UTC): 31 May 2020 09:40:10
Eccentricity: 0.0059136
inclination: 67.9927°
perigee height: 538 km
apogee height: 620 km
right ascension of ascending node: 122.6239°
argument of perigee: 220.1650°
revolutions per day: 14.95954166
mean anomaly at epoch: 139.5115°
orbit number at epoch: 7677

The dashed part of the orbit path shows where the satellite is in the earth's shadow,  

DLR